Year,Month,Day,Hour,Minute,Value (Times are PST for temperature in C)
2016,06,14,00,00,10.10
2016,06,14,00,01,10.10
2016,06,14,00,02,10.10
2016,06,14,00,03,10.10
2016,06,14,00,04,10.10
2016,06,14,00,05,10.00
2016,06,14,00,06,10.00
2016,06,14,00,07,10.00
2016,06,14,00,08,10.00
2016,06,14,00,09,10.00
2016,06,14,00,10,10.00
2016,06,14,00,11,9.90
2016,06,14,00,12,9.90
2016,06,14,00,13,9.90
2016,06,14,00,14,9.90
2016,06,14,00,15,9.80
2016,06,14,00,16,9.80
2016,06,14,00,17,9.80
2016,06,14,00,18,9.80
2016,06,14,00,19,9.80
2016,06,14,00,20,9.70
2016,06,14,00,21,9.70
2016,06,14,00,22,9.70
2016,06,14,00,23,9.70
2016,06,14,00,24,9.60
2016,06,14,00,25,9.60
2016,06,14,00,26,9.60
2016,06,14,00,27,9.50
2016,06,14,00,28,9.50
2016,06,14,00,29,9.40
2016,06,14,00,30,9.40
2016,06,14,00,31,9.30
2016,06,14,00,32,9.30
2016,06,14,00,33,9.30
2016,06,14,00,34,9.20
2016,06,14,00,35,9.20
2016,06,14,00,36,9.20
2016,06,14,00,37,9.10
2016,06,14,00,38,9.10
2016,06,14,00,39,9.10
2016,06,14,00,40,9.00
2016,06,14,00,41,9.00
2016,06,14,00,42,8.90
2016,06,14,00,43,8.90
2016,06,14,00,44,8.90
2016,06,14,00,45,8.80
2016,06,14,00,46,8.80
2016,06,14,00,47,8.80
2016,06,14,00,48,8.70
2016,06,14,00,49,8.70
2016,06,14,00,50,8.70
2016,06,14,00,51,8.60
2016,06,14,00,52,8.60
2016,06,14,00,53,8.60
2016,06,14,00,54,8.60
2016,06,14,00,55,8.50
2016,06,14,00,56,8.50
2016,06,14,00,57,8.40
2016,06,14,00,58,8.40
2016,06,14,00,59,8.40
2016,06,14,01,00,8.30
2016,06,14,01,01,8.30
2016,06,14,01,02,8.30
2016,06,14,01,03,8.20
2016,06,14,01,04,8.20
2016,06,14,01,05,8.20
2016,06,14,01,06,8.20
2016,06,14,01,07,8.10
2016,06,14,01,08,8.10
2016,06,14,01,09,8.10
2016,06,14,01,10,8.00
2016,06,14,01,11,8.00
2016,06,14,01,12,7.90
2016,06,14,01,13,7.90
2016,06,14,01,14,7.90
2016,06,14,01,15,7.80
2016,06,14,01,16,7.80
2016,06,14,01,17,7.80
2016,06,14,01,18,7.80
2016,06,14,01,19,7.70
2016,06,14,01,20,7.70
2016,06,14,01,21,7.60
2016,06,14,01,22,7.60
2016,06,14,01,23,7.50
2016,06,14,01,24,7.50
2016,06,14,01,25,7.50
2016,06,14,01,26,7.40
2016,06,14,01,27,7.40
2016,06,14,01,28,7.30
2016,06,14,01,29,7.30
2016,06,14,01,30,7.30
2016,06,14,01,31,7.20
2016,06,14,01,32,7.20
2016,06,14,01,33,7.20
2016,06,14,01,34,7.20
2016,06,14,01,35,7.20
2016,06,14,01,36,7.10
2016,06,14,01,37,7.10
2016,06,14,01,38,7.10
2016,06,14,01,39,7.00
2016,06,14,01,40,7.00
2016,06,14,01,41,7.00
2016,06,14,01,42,6.90
2016,06,14,01,43,6.90
2016,06,14,01,44,6.90
2016,06,14,01,45,6.90
2016,06,14,01,46,6.90
2016,06,14,01,47,6.80
2016,06,14,01,48,6.80
2016,06,14,01,49,6.80
2016,06,14,01,50,6.80
2016,06,14,01,51,6.80
2016,06,14,01,52,6.80
2016,06,14,01,53,6.80
2016,06,14,01,54,6.80
2016,06,14,01,55,6.80
2016,06,14,01,56,6.80
2016,06,14,01,57,6.80
2016,06,14,01,58,6.80
2016,06,14,01,59,6.80
2016,06,14,02,00,6.80
2016,06,14,02,01,6.80
2016,06,14,02,02,6.80
2016,06,14,02,03,6.90
2016,06,14,02,04,6.90
2016,06,14,02,05,6.90
2016,06,14,02,06,6.90
2016,06,14,02,07,6.90
2016,06,14,02,08,6.90
2016,06,14,02,09,6.80
2016,06,14,02,10,6.80
2016,06,14,02,11,6.80
2016,06,14,02,12,6.80
2016,06,14,02,13,6.80
2016,06,14,02,14,6.80
2016,06,14,02,15,6.80
2016,06,14,02,16,6.80
2016,06,14,02,17,6.80
2016,06,14,02,18,6.70
2016,06,14,02,19,6.70
2016,06,14,02,20,6.70
2016,06,14,02,21,6.70
2016,06,14,02,22,6.70
2016,06,14,02,23,6.70
2016,06,14,02,24,6.70
2016,06,14,02,25,6.70
2016,06,14,02,26,6.70
2016,06,14,02,27,6.70
2016,06,14,02,28,6.60
2016,06,14,02,29,6.60
2016,06,14,02,30,6.60
2016,06,14,02,31,6.70
2016,06,14,02,32,6.70
2016,06,14,02,33,6.70
2016,06,14,02,34,6.70
2016,06,14,02,35,6.70
2016,06,14,02,36,6.70
2016,06,14,02,37,6.70
2016,06,14,02,38,6.70
2016,06,14,02,39,6.70
2016,06,14,02,40,6.70
2016,06,14,02,41,6.70
2016,06,14,02,42,6.70
2016,06,14,02,43,6.70
2016,06,14,02,44,6.70
2016,06,14,02,45,6.70
2016,06,14,02,46,6.70
2016,06,14,02,47,6.70
2016,06,14,02,48,6.70
2016,06,14,02,49,6.70
2016,06,14,02,50,6.70
2016,06,14,02,51,6.70
2016,06,14,02,52,6.70
2016,06,14,02,53,6.70
2016,06,14,02,54,6.70
2016,06,14,02,55,6.70
2016,06,14,02,56,6.70
2016,06,14,02,57,6.70
2016,06,14,02,58,6.70
2016,06,14,02,59,6.70
2016,06,14,03,00,6.60
2016,06,14,03,01,6.60
2016,06,14,03,02,6.60
2016,06,14,03,03,6.60
2016,06,14,03,04,6.60
2016,06,14,03,05,6.60
2016,06,14,03,06,6.60
2016,06,14,03,07,6.60
2016,06,14,03,08,6.60
2016,06,14,03,09,6.50
2016,06,14,03,10,6.50
2016,06,14,03,11,6.50
2016,06,14,03,12,6.40
2016,06,14,03,13,6.40
2016,06,14,03,14,6.40
2016,06,14,03,15,6.40
2016,06,14,03,16,6.40
2016,06,14,03,17,6.30
2016,06,14,03,18,6.30
2016,06,14,03,19,6.30
2016,06,14,03,20,6.30
2016,06,14,03,21,6.30
2016,06,14,03,22,6.30
2016,06,14,03,23,6.30
2016,06,14,03,24,6.30
2016,06,14,03,25,6.20
2016,06,14,03,26,6.20
2016,06,14,03,27,6.20
2016,06,14,03,28,6.20
2016,06,14,03,29,6.20
2016,06,14,03,30,6.20
2016,06,14,03,31,6.20
2016,06,14,03,32,6.20
2016,06,14,03,33,6.20
2016,06,14,03,34,6.20
2016,06,14,03,35,6.20
2016,06,14,03,36,6.20
2016,06,14,03,37,6.20
2016,06,14,03,38,6.10
2016,06,14,03,39,6.10
2016,06,14,03,40,6.10
2016,06,14,03,41,6.10
2016,06,14,03,42,6.10
2016,06,14,03,43,6.10
2016,06,14,03,44,6.10
2016,06,14,03,45,6.10
2016,06,14,03,46,6.00
2016,06,14,03,47,6.00
2016,06,14,03,48,6.00
2016,06,14,03,49,6.00
2016,06,14,03,50,6.00
2016,06,14,03,51,5.90
2016,06,14,03,52,5.90
2016,06,14,03,53,5.90
2016,06,14,03,54,5.90
2016,06,14,03,55,5.90
2016,06,14,03,56,5.90
2016,06,14,03,57,5.90
2016,06,14,03,58,5.90
2016,06,14,03,59,5.90
2016,06,14,04,00,5.90
2016,06,14,04,01,5.90
2016,06,14,04,02,5.90
2016,06,14,04,03,5.90
2016,06,14,04,04,5.80
2016,06,14,04,05,5.80
2016,06,14,04,06,5.80
2016,06,14,04,07,5.80
2016,06,14,04,08,5.80
2016,06,14,04,09,5.80
2016,06,14,04,10,5.80
2016,06,14,04,11,5.80
2016,06,14,04,12,5.70
2016,06,14,04,13,5.70
2016,06,14,04,14,5.70
2016,06,14,04,15,5.70
2016,06,14,04,16,5.70
2016,06,14,04,17,5.70
2016,06,14,04,18,5.70
2016,06,14,04,19,5.70
2016,06,14,04,20,5.70
2016,06,14,04,21,5.60
2016,06,14,04,22,5.60
2016,06,14,04,23,5.60
2016,06,14,04,24,5.60
2016,06,14,04,25,5.60
2016,06,14,04,26,5.60
2016,06,14,04,27,5.60
2016,06,14,04,28,5.50
2016,06,14,04,29,5.50
2016,06,14,04,30,5.50
2016,06,14,04,31,5.50
2016,06,14,04,32,5.50
2016,06,14,04,33,5.50
2016,06,14,04,34,5.40
2016,06,14,04,35,5.40
2016,06,14,04,36,5.40
2016,06,14,04,37,5.40
2016,06,14,04,38,5.40
2016,06,14,04,39,5.40
2016,06,14,04,40,5.40
2016,06,14,04,41,5.40
2016,06,14,04,42,5.40
2016,06,14,04,43,5.30
2016,06,14,04,44,5.30
2016,06,14,04,45,5.30
2016,06,14,04,46,5.30
2016,06,14,04,47,5.30
2016,06,14,04,48,5.30
2016,06,14,04,49,5.30
2016,06,14,04,50,5.30
2016,06,14,04,51,5.20
2016,06,14,04,52,5.20
2016,06,14,04,53,5.30
2016,06,14,04,54,5.30
2016,06,14,04,55,5.30
2016,06,14,04,56,5.30
2016,06,14,04,57,5.30
2016,06,14,04,58,5.30
2016,06,14,04,59,5.30
2016,06,14,05,00,5.30
2016,06,14,05,01,5.30
2016,06,14,05,02,5.30
2016,06,14,05,03,5.30
2016,06,14,05,04,5.30
2016,06,14,05,05,5.30
2016,06,14,05,06,5.30
2016,06,14,05,07,5.30
2016,06,14,05,08,5.30
2016,06,14,05,09,5.30
2016,06,14,05,10,5.30
2016,06,14,05,11,5.30
2016,06,14,05,12,5.30
2016,06,14,05,13,5.30
2016,06,14,05,14,5.30
2016,06,14,05,15,5.30
2016,06,14,05,16,5.30
2016,06,14,05,17,5.30
2016,06,14,05,18,5.30
2016,06,14,05,19,5.30
2016,06,14,05,20,5.20
2016,06,14,05,21,5.30
2016,06,14,05,22,5.20
2016,06,14,05,23,5.20
2016,06,14,05,24,5.20
2016,06,14,05,25,5.20
2016,06,14,05,26,5.20
2016,06,14,05,27,5.20
2016,06,14,05,28,5.20
2016,06,14,05,29,5.20
2016,06,14,05,30,5.20
2016,06,14,05,31,5.20
2016,06,14,05,32,5.20
2016,06,14,05,33,5.20
2016,06,14,05,34,5.20
2016,06,14,05,35,5.20
2016,06,14,05,36,5.20
2016,06,14,05,37,5.20
2016,06,14,05,38,5.20
2016,06,14,05,39,5.20
2016,06,14,05,40,5.20
2016,06,14,05,41,5.20
2016,06,14,05,42,5.20
2016,06,14,05,43,5.20
2016,06,14,05,44,5.20
2016,06,14,05,45,5.20
2016,06,14,05,46,5.20
2016,06,14,05,47,5.20
2016,06,14,05,48,5.20
2016,06,14,05,49,5.20
2016,06,14,05,50,5.20
2016,06,14,05,51,5.20
2016,06,14,05,52,5.30
2016,06,14,05,53,5.30
2016,06,14,05,54,5.30
2016,06,14,05,55,5.30
2016,06,14,05,56,5.30
2016,06,14,05,57,5.40
2016,06,14,05,58,5.40
2016,06,14,05,59,5.40
2016,06,14,06,00,5.40
2016,06,14,06,01,5.40
2016,06,14,06,02,5.40
2016,06,14,06,03,5.40
2016,06,14,06,04,5.40
2016,06,14,06,05,5.40
2016,06,14,06,06,5.40
2016,06,14,06,07,5.50
2016,06,14,06,08,5.50
2016,06,14,06,09,5.50
2016,06,14,06,10,5.50
2016,06,14,06,11,5.50
2016,06,14,06,12,5.50
2016,06,14,06,13,5.50
2016,06,14,06,14,5.50
2016,06,14,06,15,5.50
2016,06,14,06,16,5.60
2016,06,14,06,17,5.60
2016,06,14,06,18,5.60
2016,06,14,06,19,5.60
2016,06,14,06,20,5.60
2016,06,14,06,21,5.60
2016,06,14,06,22,5.70
2016,06,14,06,23,5.70
2016,06,14,06,24,5.70
2016,06,14,06,25,5.70
2016,06,14,06,26,5.70
2016,06,14,06,27,5.70
2016,06,14,06,28,5.80
2016,06,14,06,29,5.80
2016,06,14,06,30,5.80
2016,06,14,06,31,5.80
2016,06,14,06,32,5.80
2016,06,14,06,33,5.80
2016,06,14,06,34,5.80
2016,06,14,06,35,5.80
2016,06,14,06,36,5.80
2016,06,14,06,37,5.80
2016,06,14,06,38,5.80
2016,06,14,06,39,5.90
2016,06,14,06,40,5.90
2016,06,14,06,41,5.90
2016,06,14,06,42,6.00
2016,06,14,06,43,6.00
2016,06,14,06,44,6.10
2016,06,14,06,45,6.10
2016,06,14,06,46,6.10
2016,06,14,06,47,6.20
2016,06,14,06,48,6.20
2016,06,14,06,49,6.30
2016,06,14,06,50,6.30
2016,06,14,06,51,6.30
2016,06,14,06,52,6.40
2016,06,14,06,53,6.40
2016,06,14,06,54,6.40
2016,06,14,06,55,6.50
2016,06,14,06,56,6.50
2016,06,14,06,57,6.60
2016,06,14,06,58,6.60
2016,06,14,06,59,6.60
2016,06,14,07,00,6.70
2016,06,14,07,01,6.70
2016,06,14,07,02,6.70
2016,06,14,07,03,6.80
2016,06,14,07,04,6.80
2016,06,14,07,05,6.90
2016,06,14,07,06,7.00
2016,06,14,07,07,7.00
2016,06,14,07,08,7.10
2016,06,14,07,09,7.10
2016,06,14,07,10,7.20
2016,06,14,07,11,7.20
2016,06,14,07,12,7.20
2016,06,14,07,13,7.30
2016,06,14,07,14,7.30
2016,06,14,07,15,7.30
2016,06,14,07,16,7.40
2016,06,14,07,17,7.50
2016,06,14,07,18,7.50
2016,06,14,07,19,7.60
2016,06,14,07,20,7.70
2016,06,14,07,21,7.80
2016,06,14,07,22,7.90
2016,06,14,07,23,8.00
2016,06,14,07,24,8.10
2016,06,14,07,25,8.30
2016,06,14,07,26,8.40
2016,06,14,07,27,8.50
2016,06,14,07,28,8.60
2016,06,14,07,29,8.70
2016,06,14,07,30,8.90
2016,06,14,07,31,9.00
2016,06,14,07,32,9.20
2016,06,14,07,33,9.30
2016,06,14,07,34,9.40
2016,06,14,07,35,9.50
2016,06,14,07,36,9.60
2016,06,14,07,37,9.80
2016,06,14,07,38,9.90
2016,06,14,07,39,10.00
2016,06,14,07,40,10.10
2016,06,14,07,41,10.20
2016,06,14,07,42,10.30
2016,06,14,07,43,10.40
2016,06,14,07,44,10.50
2016,06,14,07,45,10.60
2016,06,14,07,46,10.60
2016,06,14,07,47,10.70
2016,06,14,07,48,10.70
2016,06,14,07,49,10.80
2016,06,14,07,50,10.80
2016,06,14,07,51,10.90
2016,06,14,07,52,10.90
2016,06,14,07,53,10.90
2016,06,14,07,54,10.90
2016,06,14,07,55,10.90
2016,06,14,07,56,11.00
2016,06,14,07,57,11.00
2016,06,14,07,58,11.00
2016,06,14,07,59,11.10
2016,06,14,08,00,11.10
2016,06,14,08,01,11.10
2016,06,14,08,02,11.20
2016,06,14,08,03,11.20
2016,06,14,08,04,11.20
2016,06,14,08,05,11.20
2016,06,14,08,06,11.20
2016,06,14,08,07,11.30
2016,06,14,08,08,11.30
2016,06,14,08,09,11.30
2016,06,14,08,10,11.40
2016,06,14,08,11,11.40
2016,06,14,08,12,11.40
2016,06,14,08,13,11.40
2016,06,14,08,14,11.50
2016,06,14,08,15,11.40
2016,06,14,08,16,11.50
2016,06,14,08,17,11.50
2016,06,14,08,18,11.50
2016,06,14,08,19,11.50
2016,06,14,08,20,11.50
2016,06,14,08,21,11.50
2016,06,14,08,22,11.50
2016,06,14,08,23,11.50
2016,06,14,08,24,11.50
2016,06,14,08,25,11.40
2016,06,14,08,26,11.40
2016,06,14,08,27,11.40
2016,06,14,08,28,11.40
2016,06,14,08,29,11.40
2016,06,14,08,30,11.50
2016,06,14,08,31,11.50
2016,06,14,08,32,11.50
2016,06,14,08,33,11.50
2016,06,14,08,34,11.50
2016,06,14,08,35,11.60
2016,06,14,08,36,11.60
2016,06,14,08,37,11.60
2016,06,14,08,38,11.60
2016,06,14,08,39,11.60
2016,06,14,08,40,11.60
2016,06,14,08,41,11.70
2016,06,14,08,42,11.70
2016,06,14,08,43,11.70
2016,06,14,08,44,11.70
2016,06,14,08,45,11.70
2016,06,14,08,46,11.70
2016,06,14,08,47,11.80
2016,06,14,08,48,11.80
2016,06,14,08,49,11.80
2016,06,14,08,50,11.80
2016,06,14,08,51,11.80
2016,06,14,08,52,11.90
2016,06,14,08,53,11.90
2016,06,14,08,54,11.90
2016,06,14,08,55,12.00
2016,06,14,08,56,12.00
2016,06,14,08,57,12.00
2016,06,14,08,58,12.00
2016,06,14,08,59,12.00
2016,06,14,09,00,12.00
2016,06,14,09,01,12.00
2016,06,14,09,02,11.90
2016,06,14,09,03,11.90
2016,06,14,09,04,11.90
2016,06,14,09,05,11.90
2016,06,14,09,06,11.90
2016,06,14,09,07,11.90
2016,06,14,09,08,11.90
2016,06,14,09,09,11.90
2016,06,14,09,10,11.90
2016,06,14,09,11,12.00
2016,06,14,09,12,12.00
2016,06,14,09,13,12.00
2016,06,14,09,14,12.10
2016,06,14,09,15,12.00
2016,06,14,09,16,12.00
2016,06,14,09,17,12.00
2016,06,14,09,18,11.90
2016,06,14,09,19,11.90
2016,06,14,09,20,11.80
2016,06,14,09,21,11.70
2016,06,14,09,22,11.70
2016,06,14,09,23,11.60
2016,06,14,09,24,11.60
2016,06,14,09,25,11.50
2016,06,14,09,26,11.40
2016,06,14,09,27,11.40
2016,06,14,09,28,11.30
2016,06,14,09,29,11.30
2016,06,14,09,30,11.20
2016,06,14,09,31,11.20
2016,06,14,09,32,11.20
2016,06,14,09,33,11.20
2016,06,14,09,34,11.20
2016,06,14,09,35,11.20
2016,06,14,09,36,11.10
2016,06,14,09,37,11.10
2016,06,14,09,38,11.00
2016,06,14,09,39,11.00
2016,06,14,09,40,10.90
2016,06,14,09,41,10.90
2016,06,14,09,42,10.80
2016,06,14,09,43,10.80
2016,06,14,09,44,10.80
2016,06,14,09,45,10.80
2016,06,14,09,46,10.70
2016,06,14,09,47,10.70
2016,06,14,09,48,10.60
2016,06,14,09,49,10.50
2016,06,14,09,50,10.40
2016,06,14,09,51,10.30
2016,06,14,09,52,10.30
2016,06,14,09,53,10.20
2016,06,14,09,54,10.10
2016,06,14,09,55,10.10
2016,06,14,09,56,10.00
2016,06,14,09,57,9.90
2016,06,14,09,58,9.80
2016,06,14,09,59,9.70
2016,06,14,10,00,9.70
2016,06,14,10,01,9.60
2016,06,14,10,02,9.60
2016,06,14,10,03,9.50
2016,06,14,10,04,9.50
2016,06,14,10,05,9.40
2016,06,14,10,06,9.40
2016,06,14,10,07,9.40
2016,06,14,10,08,9.40
2016,06,14,10,09,9.40
2016,06,14,10,10,9.30
2016,06,14,10,11,9.30
2016,06,14,10,12,9.30
2016,06,14,10,13,9.30
2016,06,14,10,14,9.30
2016,06,14,10,15,9.20
2016,06,14,10,16,9.20
2016,06,14,10,17,9.20
2016,06,14,10,18,9.20
2016,06,14,10,19,9.20
2016,06,14,10,20,9.20
2016,06,14,10,21,9.20
2016,06,14,10,22,9.10
2016,06,14,10,23,9.10
2016,06,14,10,24,9.10
2016,06,14,10,25,9.10
2016,06,14,10,26,9.10
2016,06,14,10,27,9.20
2016,06,14,10,28,9.20
2016,06,14,10,29,9.10
2016,06,14,10,30,9.10
2016,06,14,10,31,9.10
2016,06,14,10,32,9.10
2016,06,14,10,33,9.20
2016,06,14,10,34,9.20
2016,06,14,10,35,9.20
2016,06,14,10,36,9.20
2016,06,14,10,37,9.20
2016,06,14,10,38,9.20
2016,06,14,10,39,9.20
2016,06,14,10,40,9.20
2016,06,14,10,41,9.20
2016,06,14,10,42,9.20
2016,06,14,10,43,9.20
2016,06,14,10,44,9.20
2016,06,14,10,45,9.20
2016,06,14,10,46,9.20
2016,06,14,10,47,9.20
2016,06,14,10,48,9.10
2016,06,14,10,49,9.10
2016,06,14,10,50,9.10
2016,06,14,10,51,9.10
2016,06,14,10,52,9.20
2016,06,14,10,53,9.20
2016,06,14,10,54,9.20
2016,06,14,10,55,9.20
2016,06,14,10,56,9.20
2016,06,14,10,57,9.20
2016,06,14,10,58,9.20
2016,06,14,10,59,9.20
2016,06,14,11,00,9.20
2016,06,14,11,01,9.20
2016,06,14,11,02,9.20
2016,06,14,11,03,9.20
2016,06,14,11,04,9.20
2016,06,14,11,05,9.20
2016,06,14,11,06,9.20
2016,06,14,11,07,9.20
2016,06,14,11,08,9.20
2016,06,14,11,09,9.30
2016,06,14,11,10,9.30
2016,06,14,11,11,9.30
2016,06,14,11,12,9.30
2016,06,14,11,13,9.30
2016,06,14,11,14,9.30
2016,06,14,11,15,9.30
2016,06,14,11,16,9.30
2016,06,14,11,17,9.30
2016,06,14,11,18,9.30
2016,06,14,11,19,9.30
2016,06,14,11,20,9.30
2016,06,14,11,21,9.30
2016,06,14,11,22,9.30
2016,06,14,11,23,9.30
2016,06,14,11,24,9.20
2016,06,14,11,25,9.20
2016,06,14,11,26,9.20
2016,06,14,11,27,9.30
2016,06,14,11,28,9.30
2016,06,14,11,29,9.30
2016,06,14,11,30,9.30
2016,06,14,11,31,9.30
2016,06,14,11,32,9.30
2016,06,14,11,33,9.30
2016,06,14,11,34,9.30
2016,06,14,11,35,9.30
2016,06,14,11,36,9.20
2016,06,14,11,37,9.20
2016,06,14,11,38,9.20
2016,06,14,11,39,9.30
2016,06,14,11,40,9.30
2016,06,14,11,41,9.30
2016,06,14,11,42,9.30
2016,06,14,11,43,9.30
2016,06,14,11,44,9.30
2016,06,14,11,45,9.30
2016,06,14,11,46,9.30
2016,06,14,11,47,9.30
2016,06,14,11,48,9.20
2016,06,14,11,49,9.20
2016,06,14,11,50,9.20
2016,06,14,11,51,9.20
2016,06,14,11,52,9.20
2016,06,14,11,53,9.20
2016,06,14,11,54,9.20
2016,06,14,11,55,9.20
2016,06,14,11,56,9.20
2016,06,14,11,57,9.30
2016,06,14,11,58,9.30
2016,06,14,11,59,9.30
2016,06,14,12,00,9.40
2016,06,14,12,01,9.40
2016,06,14,12,02,9.50
2016,06,14,12,03,9.50
2016,06,14,12,04,9.60
2016,06,14,12,05,9.60
2016,06,14,12,06,9.60
2016,06,14,12,07,9.60
2016,06,14,12,08,9.70
2016,06,14,12,09,9.70
2016,06,14,12,10,9.70
2016,06,14,12,11,9.70
2016,06,14,12,12,9.70
2016,06,14,12,13,9.70
2016,06,14,12,14,9.70
2016,06,14,12,15,9.70
2016,06,14,12,16,9.80
2016,06,14,12,17,9.80
2016,06,14,12,18,9.80
2016,06,14,12,19,9.90
2016,06,14,12,20,9.90
2016,06,14,12,21,10.00
2016,06,14,12,22,10.00
2016,06,14,12,23,10.10
2016,06,14,12,24,10.10
2016,06,14,12,25,10.20
2016,06,14,12,26,10.20
2016,06,14,12,27,10.30
2016,06,14,12,28,10.30
2016,06,14,12,29,10.40
2016,06,14,12,30,10.40
2016,06,14,12,31,10.40
2016,06,14,12,32,10.40
2016,06,14,12,33,10.40
2016,06,14,12,34,10.30
2016,06,14,12,35,10.30
2016,06,14,12,36,10.30
2016,06,14,12,37,10.30
2016,06,14,12,38,10.30
2016,06,14,12,39,10.30
2016,06,14,12,40,10.30
2016,06,14,12,41,10.30
2016,06,14,12,42,10.30
2016,06,14,12,43,10.30
2016,06,14,12,44,10.30
2016,06,14,12,45,10.30
2016,06,14,12,46,10.30
2016,06,14,12,47,10.30
2016,06,14,12,48,10.40
2016,06,14,12,49,10.40
2016,06,14,12,50,10.50
2016,06,14,12,51,10.50
2016,06,14,12,52,10.60
2016,06,14,12,53,10.60
2016,06,14,12,54,10.60
2016,06,14,12,55,10.60
2016,06,14,12,56,10.60
2016,06,14,12,57,10.60
2016,06,14,12,58,10.60
2016,06,14,12,59,10.60
2016,06,14,13,00,10.50
2016,06,14,13,01,10.50
2016,06,14,13,02,10.40
2016,06,14,13,03,10.50
2016,06,14,13,04,10.50
2016,06,14,13,05,10.50
2016,06,14,13,06,10.50
2016,06,14,13,07,10.50
2016,06,14,13,08,10.40
2016,06,14,13,09,10.40
2016,06,14,13,10,10.40
2016,06,14,13,11,10.50
2016,06,14,13,12,10.50
2016,06,14,13,13,10.50
2016,06,14,13,14,10.60
2016,06,14,13,15,10.70
2016,06,14,13,16,10.70
2016,06,14,13,17,10.70
2016,06,14,13,18,10.70
2016,06,14,13,19,10.70
2016,06,14,13,20,10.80
2016,06,14,13,21,10.80
2016,06,14,13,22,10.90
2016,06,14,13,23,10.90
2016,06,14,13,24,11.00
2016,06,14,13,25,11.00
2016,06,14,13,26,11.00
2016,06,14,13,27,11.00
2016,06,14,13,28,11.00
2016,06,14,13,29,11.00
2016,06,14,13,30,11.00
2016,06,14,13,31,11.10
2016,06,14,13,32,11.10
2016,06,14,13,33,11.10
2016,06,14,13,34,11.10
2016,06,14,13,35,11.10
2016,06,14,13,36,11.10
2016,06,14,13,37,11.20
2016,06,14,13,38,11.20
2016,06,14,13,39,11.30
2016,06,14,13,40,11.30
2016,06,14,13,41,11.30
2016,06,14,13,42,11.40
2016,06,14,13,43,11.40
2016,06,14,13,44,11.40
2016,06,14,13,45,11.40
2016,06,14,13,46,11.40
2016,06,14,13,47,11.40
2016,06,14,13,48,11.30
2016,06,14,13,49,11.30
2016,06,14,13,50,11.30
2016,06,14,13,51,11.30
2016,06,14,13,52,11.30
2016,06,14,13,53,11.40
2016,06,14,13,54,11.40
2016,06,14,13,55,11.40
2016,06,14,13,56,11.50
2016,06,14,13,57,11.50
2016,06,14,13,58,11.50
2016,06,14,13,59,11.60
2016,06,14,14,00,11.60
2016,06,14,14,01,11.70
2016,06,14,14,02,11.70
2016,06,14,14,03,11.80
2016,06,14,14,04,11.80
2016,06,14,14,05,11.80
2016,06,14,14,06,11.80
2016,06,14,14,07,11.80
2016,06,14,14,08,11.70
2016,06,14,14,09,11.70
2016,06,14,14,10,11.70
2016,06,14,14,11,11.70
2016,06,14,14,12,11.70
2016,06,14,14,13,11.60
2016,06,14,14,14,11.60
2016,06,14,14,15,11.60
2016,06,14,14,16,11.60
2016,06,14,14,17,11.60
2016,06,14,14,18,11.60
2016,06,14,14,19,11.50
2016,06,14,14,20,11.50
2016,06,14,14,21,11.50
2016,06,14,14,22,11.40
2016,06,14,14,23,11.40
2016,06,14,14,24,11.40
2016,06,14,14,25,11.30
2016,06,14,14,26,11.30
2016,06,14,14,27,11.20
2016,06,14,14,28,11.20
2016,06,14,14,29,11.20
2016,06,14,14,30,11.20
2016,06,14,14,31,11.20
2016,06,14,14,32,11.20
2016,06,14,14,33,11.20
2016,06,14,14,34,11.20
2016,06,14,14,35,11.20
2016,06,14,14,36,11.10
2016,06,14,14,37,11.10
2016,06,14,14,38,11.10
2016,06,14,14,39,11.10
2016,06,14,14,40,11.10
2016,06,14,14,41,11.00
2016,06,14,14,42,11.00
2016,06,14,14,43,11.00
2016,06,14,14,44,10.90
2016,06,14,14,45,10.90
2016,06,14,14,46,10.90
2016,06,14,14,47,10.90
2016,06,14,14,48,10.90
2016,06,14,14,49,10.90
2016,06,14,14,50,10.90
2016,06,14,14,51,10.90
2016,06,14,14,52,10.90
2016,06,14,14,53,10.90
2016,06,14,14,54,10.90
2016,06,14,14,55,10.80
2016,06,14,14,56,10.80
2016,06,14,14,57,10.80
2016,06,14,14,58,10.80
2016,06,14,14,59,10.80
2016,06,14,15,00,10.70
2016,06,14,15,01,10.70
2016,06,14,15,02,10.70
2016,06,14,15,03,10.70
2016,06,14,15,04,10.60
2016,06,14,15,05,10.60
2016,06,14,15,06,10.60
2016,06,14,15,07,10.70
2016,06,14,15,08,10.70
2016,06,14,15,09,10.60
2016,06,14,15,10,10.60
2016,06,14,15,11,10.60
2016,06,14,15,12,10.60
2016,06,14,15,13,10.60
2016,06,14,15,14,10.60
2016,06,14,15,15,10.50
2016,06,14,15,16,10.50
2016,06,14,15,17,10.50
2016,06,14,15,18,10.50
2016,06,14,15,19,10.50
2016,06,14,15,20,10.40
2016,06,14,15,21,10.40
2016,06,14,15,22,10.40
2016,06,14,15,23,10.40
2016,06,14,15,24,10.40
2016,06,14,15,25,10.40
2016,06,14,15,26,10.40
2016,06,14,15,27,10.40
2016,06,14,15,28,10.40
2016,06,14,15,29,10.40
2016,06,14,15,30,10.50
2016,06,14,15,31,10.50
2016,06,14,15,32,10.60
2016,06,14,15,33,10.60
2016,06,14,15,34,10.60
2016,06,14,15,35,10.60
2016,06,14,15,36,10.60
2016,06,14,15,37,10.60
2016,06,14,15,38,10.60
2016,06,14,15,39,10.50
2016,06,14,15,40,10.50
2016,06,14,15,41,10.50
2016,06,14,15,42,10.50
2016,06,14,15,43,10.50
2016,06,14,15,44,10.50
2016,06,14,15,45,10.60
2016,06,14,15,46,10.60
2016,06,14,15,47,10.60
2016,06,14,15,48,10.60
2016,06,14,15,49,10.60
2016,06,14,15,50,10.60
2016,06,14,15,51,10.70
2016,06,14,15,52,10.70
2016,06,14,15,53,10.70
2016,06,14,15,54,10.70
2016,06,14,15,55,10.80
2016,06,14,15,56,10.80
2016,06,14,15,57,10.80
2016,06,14,15,58,10.90
2016,06,14,15,59,10.90
2016,06,14,16,00,11.00
2016,06,14,16,01,11.00
2016,06,14,16,02,11.10
2016,06,14,16,03,11.10
2016,06,14,16,04,11.10
2016,06,14,16,05,11.10
2016,06,14,16,06,11.20
2016,06,14,16,07,11.20
2016,06,14,16,08,11.20
2016,06,14,16,09,11.20
2016,06,14,16,10,11.20
2016,06,14,16,11,11.20
2016,06,14,16,12,11.20
2016,06,14,16,13,11.20
2016,06,14,16,14,11.20
2016,06,14,16,15,11.20
2016,06,14,16,16,11.10
2016,06,14,16,17,11.10
2016,06,14,16,18,11.10
2016,06,14,16,19,11.10
2016,06,14,16,20,11.10
2016,06,14,16,21,11.10
2016,06,14,16,22,11.20
2016,06,14,16,23,11.20
2016,06,14,16,24,11.20
2016,06,14,16,25,11.20
2016,06,14,16,26,11.20
2016,06,14,16,27,11.20
2016,06,14,16,28,11.20
2016,06,14,16,29,11.20
2016,06,14,16,30,11.20
2016,06,14,16,31,11.10
2016,06,14,16,32,11.10
2016,06,14,16,33,11.10
2016,06,14,16,34,11.00
2016,06,14,16,35,11.00
2016,06,14,16,36,10.90
2016,06,14,16,37,10.90
2016,06,14,16,38,10.90
2016,06,14,16,39,10.90
2016,06,14,16,40,11.00
2016,06,14,16,41,11.00
2016,06,14,16,42,11.00
2016,06,14,16,43,11.00
2016,06,14,16,44,11.00
2016,06,14,16,45,11.10
2016,06,14,16,46,11.10
2016,06,14,16,47,11.20
2016,06,14,16,48,11.30
2016,06,14,16,49,11.30
2016,06,14,16,50,11.40
2016,06,14,16,51,11.40
2016,06,14,16,52,11.50
2016,06,14,16,53,11.60
2016,06,14,16,54,11.70
2016,06,14,16,55,11.70
2016,06,14,16,56,11.80
2016,06,14,16,57,11.80
2016,06,14,16,58,11.80
2016,06,14,16,59,11.90
2016,06,14,17,00,11.90
2016,06,14,17,01,11.90
2016,06,14,17,02,11.90
2016,06,14,17,03,11.90
2016,06,14,17,04,11.90
2016,06,14,17,05,11.90
2016,06,14,17,06,12.00
2016,06,14,17,07,12.00
2016,06,14,17,08,12.00
2016,06,14,17,09,12.00
2016,06,14,17,10,12.00
2016,06,14,17,11,12.00
2016,06,14,17,12,12.00
2016,06,14,17,13,12.00
2016,06,14,17,14,12.00
2016,06,14,17,15,12.10
2016,06,14,17,16,12.10
2016,06,14,17,17,12.10
2016,06,14,17,18,12.10
2016,06,14,17,19,12.10
2016,06,14,17,20,12.10
2016,06,14,17,21,12.20
2016,06,14,17,22,12.20
2016,06,14,17,23,12.20
2016,06,14,17,24,12.20
2016,06,14,17,25,12.20
2016,06,14,17,26,12.20
2016,06,14,17,27,12.30
2016,06,14,17,28,12.30
2016,06,14,17,29,12.20
2016,06,14,17,30,12.20
2016,06,14,17,31,12.20
2016,06,14,17,32,12.20
2016,06,14,17,33,12.20
2016,06,14,17,34,12.20
2016,06,14,17,35,12.20
2016,06,14,17,36,12.20
2016,06,14,17,37,12.20
2016,06,14,17,38,12.20
2016,06,14,17,39,12.20
2016,06,14,17,40,12.30
2016,06,14,17,41,12.30
2016,06,14,17,42,12.30
2016,06,14,17,43,12.30
2016,06,14,17,44,12.30
2016,06,14,17,45,12.40